Content
SEND FEEDBACK

Daily
Averages
Monthly
Summary
United States of America

HYANNIS, MASSACHUSETTS


Home > North America > United States > Massachusetts
Elevation: 2 feet     Latitude: 41 40N     Longitude: 070 18W

WEATHER
 
SELECT A DAY
Number of Records: 210,078;   Date Range: 1/1/95 - 10/18/14
 
SHARE

PRINT THIS DATA

[ ← Previous Day ]
WEATHER ALMANAC - FEBRUARY 1, 2013
[ Next Day → ]
[ °C ]   °F
Weather ElementAverageHighLow
Temperature29.7 °F33.1 °F (11:56 am)24.1 °F (11:56 pm)
Dewpoint9 °F15.1 °F (2:56 am)5 °F (11:56 pm)
Humidity42.2 %54 % (3:56 am)34 % (3:56 pm)
Barometer29.83 in30.08 in (11:56 pm)29.66 in (2:56 am)
Wind Speed12 mph20.7 mph (8:56 am)
Wind Gust29.9 mph (8:56 am)
Weather ElementAverage
Visibility10 mi
Wind DirectionWNW (279.5 °)

Weather ElementTotal
Precipitation---
Heating Degree Days36.4 (Base 65)
Averaged from 22 records on February 1, 2013
WEATHER CONDITIONS BREAKOUT
WIND DIRECTION BREAKOUT
WEATHER BY HOUR - FEBRUARY 1, 2013
[ °C ]   °F
Local TimeTemperatureDewpointHumidityBarometerVisibilityWind DirectionWind SpeedGust SpeedPrecipitationEventsConditions
2:56 AM30.9 °F15.1 °F52 %29.66 in10.0 miWest (260°)17.3 mph24.2 mphClear
3:56 AM30.0 °F15.1 °F54 %29.68 in10.0 miWest (260°)16.1 mph26.5 mphClear
4:56 AM28.9 °F12.0 °F49 %29.70 in10.0 miWest (260°)18.4 mph24.2 mphClear
5:56 AM28.9 °F10.0 °F45 %29.72 in10.0 miWest (260°)13.8 mph25.3 mphClear
6:56 AM28.0 °F10.0 °F47 %29.75 in10.0 miWest (260°)17.3 mph24.2 mphClear
7:56 AM30.0 °F10.0 °F43 %29.78 in10.0 miWest (260°)17.3 mph28.8 mphClear
8:56 AM32.0 °F9.0 °F38 %29.78 in10.0 miWest (260°)20.7 mph29.9 mphClear
9:56 AM32.0 °F9.0 °F38 %29.78 in10.0 miWest (260°)16.1 mph26.5 mphClear
10:56 AM32.0 °F9.0 °F38 %29.79 in10.0 miWest (280°)12.7 mphClear
11:56 AM33.1 °F10.0 °F38 %29.76 in10.0 miWNW (290°)8.1 mphPartly Cloudy
12:56 PM32.0 °F10.9 °F42 %29.75 in10.0 miNW (320°)11.5 mph18.4 mphMostly Cloudy
1:56 PM32.0 °F9.0 °F38 %29.75 in10.0 miWNW (300°)6.9 mphOvercast
2:56 PM32.0 °F9.0 °F38 %29.77 in10.0 miNW (320°)8.1 mphOvercast
3:56 PM32.0 °F6.1 °F34 %29.78 in10.0 miWest (270°)11.5 mphOvercast
4:56 PM30.9 °F7.0 °F37 %29.82 in10.0 miWNW (290°)4.6 mphOvercast
5:56 PM30.0 °F7.0 °F38 %29.88 in10.0 miWNW (290°)11.5 mph19.6 mphOvercast
6:56 PM28.9 °F6.1 °F38 %29.92 in10.0 miWNW (290°)6.9 mphPartly Cloudy
7:56 PM28.0 °F7.0 °F41 %29.96 in10.0 miWest (280°)9.2 mphMostly Cloudy
8:56 PM27.0 °F7.0 °F43 %29.99 in10.0 miWest (280°)9.2 mphClear
9:56 PM26.1 °F8.1 °F47 %30.02 in10.0 miWest (280°)8.1 mphClear
10:56 PM25.0 °F7.0 °F46 %30.04 in10.0 miWNW (290°)10.4 mphClear
11:56 PM24.1 °F5.0 °F44 %30.08 in10.0 miWNW (290°)8.1 mphClear
Hourly data recorded from KHYA, located miles away from Hyannis, Massachusetts







STORIES FROM OUR PARTNERS